Location: Ferintosh
(52.7647°N, 112.9692°W)
Time: 22:51:43
(UTC+00:00)

Vanguard 1 Rocket - Pass Details

Date: 26 May 2024
Orbit: 649 x 4221 km, 34.3° (Epoch: 13 June)

Event Time Altitude Azimuth Distance (km) Brightness Sun altitude
Rises 18:38:41 0° 256° (WSW) 7,832 12.1 57.1°
Reaches altitude 10° 18:45:21 10° 249° (WSW) 6,307 11.8 57.4°
Maximum altitude 18:59:57 32° 196° (SSW) 3,310 11.4 58.1°
Drops below altitude 10° 19:08:34 10° 137° (SE) 3,694 11.1 58.3°
Sets 19:11:20 0° 127° (SE) 4,312 11.2 58.4°
